Regional Weather Roundup
Issued by NWS Burlington, VT

Home | Current Version | Previous Version | Text Only | Print | Product List | Glossary On
Versions: 1 2 3 4 5 6 7 8 9 10 11 12 13 14 15 16 17 18 19 20 21 22 23 24 25 26 27 28 29 30 31 32 33 34 35 36 37 38 39 40 41 42 43 44 45 46 47 48 49 50
000
ASUS41 KBTV 171930
RWRBTV
VERMONT REGIONAL WEATHER ROUNDUP
NATIONAL WEATHER SERVICE BURLINGTON VT
300 PM EDT THU AUG 17 2017

NOTE: "FAIR" INDICATES FEW OR NO CLOUDS BELOW 12,000 FEET WITH NO
SIGNIFICANT WEATHER AND/OR OBSTRUCTIONS TO VISIBILITY.

* THESE REPORTS ARE NOT UNDER NWS QUALITY CONTROL AND/OR DO NOT
  REPORT WEATHER SUCH AS PRECIPITATION AND FOG.

VTZ001>019-172000-
_____VERMONT_____


CITY           SKY/WX    TMP DP  RH WIND       PRES   REMARKS
BURLINGTON     PTSUNNY   79  52  38 W5        29.99F
MONTPELIER     MOSUNNY   71  53  52 N9        30.06F
MORRISVILLE    SUNNY     73  50  44 NW6       30.02F
ST. JOHNSBURY*   N/A     74  54  49 MISG      29.98F
LYNDONVILLE*   PTSUNNY   73  55  53 SW9       30.02F
MIDDLEBURY*    FAIR      75  52  44 W3        30.00F
RUTLAND*       SUNNY     73  52  47 N5        30.02F
SPRINGFIELD    SUNNY     77  48  35 N8        30.00F
HIGHGATE*      FAIR      76  57  53 W5        29.99F
NEWPORT*       FAIR      71  54  54 NW6       30.01F
BENNINGTON     SUNNY     77  52  41 N5        30.02F
SUTTON*          N/A     72 N/A N/A MISG        N/A
ISLAND POND*     N/A     72 N/A N/A NW14        N/A
GALLUP MILLS*    N/A     72 N/A N/A MISG        N/A
UNION VILLAGE*   N/A     77 N/A N/A MISG        N/A
MT. MANSFIELD*   N/A     59 N/A N/A W18         N/A

_____LAKE CHAMPLAIN_____


CITY           SKY/WX    TMP DP  RH WIND       PRES   REMARKS
BURTON ISLAND*   N/A     73  55  53 SE2         N/A
COLCHESTER RF*   N/A     73  57  56 S7          N/A
DIAMOND ISL*     N/A     73  55  53 S5          N/A

$$

NYZ007-026>031-035-052-083-087-172000-
_____NORTHERN NEW YORK_____


CITY           SKY/WX    TMP DP  RH WIND       PRES   REMARKS
PLATTSBURGH    MOSUNNY   74  57  55 SE10      29.99F
SARANAC LAKE   SUNNY     72  51  47 SW7       30.02F
MASSENA        MOSUNNY   77  56  48 CALM      29.99F
OGDENSBURG*    FAIR      81  55  41 W3        29.98F
POTSDAM*       SUNNY     75  55  50 CALM      29.99F
STARK FALLS*     N/A     75 N/A N/A SE2         N/A
WATERTOWN      CLOUDY    78  54  43 CALM      29.97F
FT DRUM        SUNNY     78  48  34 SE5       29.98F
ALBANY         PTSUNNY   79  50  36 N8        30.00F
GLENS FALLS    SUNNY     77  51  40 S7        30.00F

$$
NHZ002-005-011-172000-
_____NEW HAMPSHIRE_____


CITY           SKY/WX    TMP DP  RH WIND       PRES   REMARKS
LEBANON        CLOUDY    79  52  38 VRB7      29.99F
KEENE            N/A    N/A N/A N/A MISG        N/A
MT WASHINGTON  FOG       45  45 100 NW45G52     N/A  VSB 1/16
PLYMOUTH       FAIR      77  50  37 NW8       29.98F
WHITEFIELD     PTSUNNY   74  53  48 NW9       30.01S

$$

_____REGIONAL QUEBEC LOCATIONS_____


CITY           SKY/WX    TMP DP  RH WIND       PRES   REMARKS
MONTREAL       CLOUDY    77  57  50 W13       29.96F
QUEBEC CITY    PTSUNNY   73  45  35 W14       29.94S
SHERBROOKE     SUNNY     72  50  46 NW12G18   29.99S

_____REGIONAL ONTARIO LOCATIONS_____


CITY           SKY/WX    TMP DP  RH WIND       PRES   REMARKS
OTTAWA         MOSUNNY   75  54  46 SE5       29.98F

______KEY______
VSB  - VISIBILITY IN MILES
WCI  - WIND CHILL INDEX
HX   - HEAT INDEX
$$
NNNN



USA.gov is the U.S. government's official web portal to all federal, state and local government web resources and services.